When you browse on this site, cookies collect data to enhance your experience and personalize the content and advertising you see.
Visit our Privacy Policy to learn more. By continuing to use the site, you agree to this use of cookies and data.
  • In Lithuania
  • List of Countries
  • For 7 days
  • Water Temperature
  • Weather Map
  • Weather Widgets
  • user-avatar
    Login

    Hourly Weather Myitkyina

    Today, 12 November, Tuesday

    Time Temperature Precipitation Wind Pressure Humidity
    00:00 +19°C° 0 mm 0 mps 741 mmHg 97%
    01:00 +19°C° 0.2 mm 0 mps 741 mmHg 97%
    02:00 +19°C° 0.2 mm 0 mps 741 mmHg 98%
    03:00 +18°C° 0.2 mm 0 mps 741 mmHg 98%
    04:00 +18°C° 0.2 mm 0 mps 741 mmHg 98%
    05:00 +18°C° 0.2 mm 0 mps 741 mmHg 98%
    06:00 +18°C° 0.2 mm 0 mps 742 mmHg 98%
    07:00 +20°C° 0 mm 0 mps 742 mmHg 93%
    08:00 +21°C° 0 mm 0 mps 743 mmHg 88%
    09:00 +23°C° 0 mm 0 mps 744 mmHg 82%
    10:00 +25°C° 0 mm 0 mps 743 mmHg 74%
    11:00 +27°C° 0 mm 0 mps 742 mmHg 66%
    12:00 +30°C° 0 mm 0 mps 741 mmHg 57%
    13:00 +29°C° 0 mm 0 mps 741 mmHg 58%
    14:00 +29°C° 0 mm 0 mps 741 mmHg 59%
    15:00 +29°C° 0 mm 0 mps 740 mmHg 60%
    16:00 +27°C° 0 mm 0 mps 740 mmHg 69%
    17:00 +25°C° 0 mm 0 mps 741 mmHg 77%
    18:00 +23°C° 0 mm 0 mps 741 mmHg 86%
    19:00 +22°C° 0 mm 0 mps 742 mmHg 88%
    20:00 +21°C° 0 mm 0 mps 742 mmHg 91%
    21:00 +21°C° 0 mm 0 mps 743 mmHg 93%
    22:00 +20°C° 0 mm 0 mps 743 mmHg 94%
    23:00 +20°C° 0 mm 0 mps 742 mmHg 95%

    Tomorrow, 13 November, Wednesday

    Time Temperature Precipitation Wind Pressure Humidity
    00:00 +20°C° 0 mm 0 mps 742 mmHg 96%
    01:00 +20°C° 0 mm 0 mps 742 mmHg 96%
    02:00 +19°C° 0 mm 0 mps 742 mmHg 96%
    03:00 +19°C° 0 mm 0 mps 742 mmHg 97%
    04:00 +19°C° 0 mm 0 mps 743 mmHg 97%
    05:00 +19°C° 0 mm 0 mps 743 mmHg 97%
    06:00 +19°C° 0 mm 0 mps 743 mmHg 97%
    07:00 +21°C° 0 mm 0 mps 744 mmHg 87%
    08:00 +24°C° 0 mm 0 mps 744 mmHg 77%
    09:00 +26°C° 0 mm 0 mps 745 mmHg 67%
    10:00 +28°C° 0 mm 0 mps 744 mmHg 62%
    11:00 +29°C° 0 mm 0 mps 744 mmHg 57%
    12:00 +31°C° 0 mm 0 mps 743 mmHg 52%
    13:00 +31°C° 0 mm 0 mps 742 mmHg 52%
    14:00 +30°C° 0 mm 0 mps 742 mmHg 52%
    15:00 +30°C° 0 mm 0 mps 742 mmHg 53%
    16:00 +28°C° 0 mm 0 mps 742 mmHg 62%
    17:00 +25°C° 0 mm 0 mps 742 mmHg 70%
    18:00 +23°C° 0 mm 0 mps 743 mmHg 79%
    19:00 +23°C° 0 mm 0 mps 743 mmHg 81%
    20:00 +22°C° 0 mm 0 mps 744 mmHg 83%
    21:00 +21°C° 0 mm 0 mps 745 mmHg 85%
    22:00 +21°C° 0 mm 0 mps 744 mmHg 87%
    23:00 +20°C° 0 mm 0 mps 744 mmHg 88%

    Day after tomorrow, 14 November, Thursday

    Time Temperature Precipitation Wind Pressure Humidity
    00:00 +20°C° 0 mm 0 mps 744 mmHg 90%
    01:00 +20°C° 0 mm 0 mps 744 mmHg 91%
    02:00 +19°C° 0 mm 0 mps 744 mmHg 92%
    03:00 +19°C° 0 mm 0 mps 744 mmHg 92%
    04:00 +19°C° 0 mm 0 mps 744 mmHg 93%
    05:00 +19°C° 0 mm 0 mps 744 mmHg 93%
    06:00 +19°C° 0 mm 0 mps 745 mmHg 93%
    07:00 +21°C° 0 mm 0 mps 745 mmHg 83%
    08:00 +24°C° 0 mm 0 mps 745 mmHg 72%
    09:00 +26°C° 0 mm 0 mps 746 mmHg 61%
    10:00 +28°C° 0 mm 0 mps 745 mmHg 56%
    11:00 +30°C° 0 mm 0 mps 744 mmHg 50%
    12:00 +32°C° 0 mm 0 mps 743 mmHg 45%
    13:00 +32°C° 0 mm 0 mps 743 mmHg 46%
    14:00 +31°C° 0 mm 0 mps 742 mmHg 48%
    15:00 +31°C° 0 mm 0 mps 741 mmHg 49%
    16:00 +28°C° 0 mm 0 mps 742 mmHg 58%
    17:00 +26°C° 0 mm 0 mps 742 mmHg 66%
    18:00 +23°C° 0 mm 0 mps 742 mmHg 74%
    19:00 +23°C° 0 mm 0 mps 743 mmHg 76%
    20:00 +22°C° 0 mm 0 mps 743 mmHg 78%
    21:00 +21°C° 0 mm 0 mps 743 mmHg 80%
    22:00 +21°C° 0 mm 0 mps 743 mmHg 82%
    23:00 +20°C° 0 mm 0 mps 743 mmHg 84%

    15 November, Friday

    Time Temperature Precipitation Wind Pressure Humidity
    00:00 +20°C° 0 mm 0 mps 743 mmHg 85%
    01:00 +19°C° 0 mm 0 mps 743 mmHg 87%
    02:00 +19°C° 0 mm 0 mps 742 mmHg 88%
    03:00 +19°C° 0 mm 0 mps 742 mmHg 89%
    04:00 +18°C° 0 mm 0 mps 742 mmHg 90%
    05:00 +18°C° 0 mm 0 mps 742 mmHg 90%
    06:00 +18°C° 0 mm 0 mps 743 mmHg 91%
    07:00 +21°C° 0 mm 0 mps 743 mmHg 80%
    08:00 +23°C° 0 mm 0 mps 743 mmHg 70%
    09:00 +26°C° 0 mm 0 mps 744 mmHg 59%
    10:00 +27°C° 0 mm 0 mps 743 mmHg 55%
    11:00 +29°C° 0 mm 0 mps 742 mmHg 51%
    12:00 +31°C° 0 mm 0 mps 741 mmHg 47%
    13:00 +30°C° 0 mm 0 mps 740 mmHg 48%
    14:00 +30°C° 0 mm 0 mps 740 mmHg 49%
    15:00 +30°C° 0 mm 0 mps 739 mmHg 50%
    16:00 +27°C° 0 mm 0 mps 740 mmHg 58%
    17:00 +25°C° 0 mm 0 mps 740 mmHg 67%
    18:00 +23°C° 0 mm 0 mps 741 mmHg 75%
    19:00 +22°C° 0 mm 0 mps 741 mmHg 77%
    20:00 +21°C° 0 mm 0 mps 741 mmHg 80%
    21:00 +21°C° 0 mm 0 mps 742 mmHg 82%
    22:00 +20°C° 0 mm 0 mps 742 mmHg 83%
    23:00 +20°C° 0 mm 0 mps 742 mmHg 85%

    16 November, Saturday

    Time Temperature Precipitation Wind Pressure Humidity
    00:00 +19°C° 0 mm 0 mps 741 mmHg 87%
    01:00 +19°C° 0 mm 0 mps 741 mmHg 87%
    02:00 +19°C° 0 mm 0 mps 741 mmHg 88%
    03:00 +18°C° 0 mm 0 mps 741 mmHg 89%
    04:00 +18°C° 0 mm 0 mps 741 mmHg 89%
    05:00 +18°C° 0 mm 0 mps 742 mmHg 90%
    06:00 +18°C° 0 mm 0 mps 742 mmHg 91%
    07:00 +20°C° 0 mm 0 mps 742 mmHg 80%
    08:00 +23°C° 0 mm 0 mps 742 mmHg 70%
    09:00 +26°C° 0 mm 0 mps 743 mmHg 59%
    10:00 +27°C° 0 mm 0 mps 742 mmHg 55%
    11:00 +29°C° 0 mm 0 mps 741 mmHg 51%
    12:00 +30°C° 0 mm 0 mps 740 mmHg 47%
    13:00 +30°C° 0 mm 0 mps 740 mmHg 48%
    14:00 +30°C° 0 mm 0 mps 739 mmHg 49%
    15:00 +29°C° 0 mm 0 mps 739 mmHg 50%
    16:00 +27°C° 0 mm 0 mps 739 mmHg 58%
    17:00 +24°C° 0 mm 0 mps 740 mmHg 66%
    18:00 +22°C° 0 mm 0 mps 740 mmHg 75%
    19:00 +21°C° 0 mm 0 mps 741 mmHg 77%
    20:00 +21°C° 0 mm 0 mps 741 mmHg 80%
    21:00 +20°C° 0 mm 0 mps 742 mmHg 82%
    22:00 +20°C° 0 mm 0 mps 742 mmHg 84%
    23:00 +19°C° 0 mm 0 mps 742 mmHg 85%

    17 November, Sunday

    Time Temperature Precipitation Wind Pressure Humidity
    00:00 +19°C° 0 mm 0 mps 741 mmHg 86%
    01:00 +18°C° 0 mm 0 mps 741 mmHg 87%
    02:00 +18°C° 0 mm 0 mps 741 mmHg 88%
    03:00 +18°C° 0 mm 0 mps 741 mmHg 89%
    04:00 +17°C° 0 mm 0 mps 741 mmHg 90%
    05:00 +17°C° 0 mm 0 mps 742 mmHg 91%
    06:00 +17°C° 0 mm 0 mps 742 mmHg 91%
    07:00 +19°C° 0 mm 0 mps 742 mmHg 80%
    08:00 +22°C° 0 mm 0 mps 742 mmHg 70%
    09:00 +25°C° 0 mm 0 mps 743 mmHg 59%
    10:00 +26°C° 0 mm 0 mps 742 mmHg 55%
    11:00 +28°C° 0 mm 0 mps 741 mmHg 51%
    12:00 +30°C° 0 mm 0 mps 740 mmHg 47%
    13:00 +29°C° 0 mm 0 mps 740 mmHg 48%
    14:00 +29°C° 0 mm 0 mps 740 mmHg 49%
    15:00 +28°C° 0 mm 0 mps 739 mmHg 50%
    16:00 +26°C° 0 mm 0 mps 740 mmHg 58%
    17:00 +24°C° 0 mm 0 mps 740 mmHg 66%
    18:00 +21°C° 0 mm 0 mps 741 mmHg 75%
    19:00 +21°C° 0 mm 0 mps 741 mmHg 77%
    20:00 +20°C° 0 mm 0 mps 742 mmHg 80%
    21:00 +19°C° 0 mm 0 mps 742 mmHg 83%
    22:00 +19°C° 0 mm 0 mps 742 mmHg 84%
    23:00 +18°C° 0 mm 0 mps 742 mmHg 85%
    Show more